[[{"header":{"parameterUnit":"m.s-1","parameterCategory":1,"la1":30.2991,"la2":30.254,"lo1":-89.0895,"lo2":-89.0444,"dy":0.0017,"dx":0.0017,"nx":28,"ny":28,"refTime":"2024-06-16T21:00:00:Z","depth":0,"parameterNumber":2,"parameterNumberName":"U-component_of_WINDS"},"data":[0,0,0,0,0,0,0,0,0,0,0,0,0,0,0,0,0,0,0,0,0,0,0,0,0,0,0,0,0,0,0,0,0,0,0,0,0,0,0,0,0,0,0,0,0,0,0,0,0,0,0,0,0,0,0,0,0,0,-7.5916,-7.5916,0,-7.5902,-7.5902,-7.5902,-7.5757,-7.5753,-7.575,-7.5746,-7.5732,-7.5735,-7.5738,0,0,0,0,0,0,0,0,0,0,0,0,0,-7.5818,-7.582,-7.5916,-7.5916,-7.5916,-7.5902,-7.5902,-7.5902,-7.5758,-7.5753,-7.5749,-7.5745,-7.5731,-7.5734,-7.5738,0,0,0,0,0,0,0,0,0,0,0,0,0,-7.5838,-7.5821,-7.5916,-7.5842,-7.5835,-7.5902,-7.5902,-7.5902,-7.5759,-7.5753,-7.5748,-7.5743,-7.573,-7.5734,-7.5738,-7.5875,0,0,-7.5752,-7.5754,0,0,0,0,0,0,0,0,-7.5837,-7.5842,-7.5853,-7.5847,-7.584,-7.5826,-7.5862,-7.5893,-7.576,-7.5788,-7.5746,-7.574,-7.5767,-7.5768,-7.5778,-7.5874,-7.5874,-7.5753,-7.5755,-7.5757,-7.5758,0,0,0,0,0,0,0,-7.5836,-7.5841,-7.591,-7.5853,-7.5845,-7.581,-7.5806,-7.5867,-7.5808,-7.5785,-7.5774,-7.5775,-7.5763,-7.5774,-7.5776,-7.5873,-7.5752,-7.5756,-7.5759,-7.5761,-7.608,-7.6086,0,0,0,0,0,0,-7.5844,-7.5841,-7.5911,-7.591,-7.5825,-7.5816,-7.5812,-7.5836,-7.5807,-7.5798,-7.5779,-7.5768,-7.5769,-7.5771,-7.5775,-7.5931,-7.5757,-7.5761,-7.5764,-7.6075,-7.6082,-7.6088,0,0,0,0,0,0,-7.5843,-7.5852,-7.5911,-7.5873,-7.5877,-7.5823,-7.5851,-7.5838,-7.5849,-7.5803,-7.5792,-7.5801,-7.5765,-7.5769,-7.5851,-7.5929,-7.5763,-7.5767,-7.6068,-7.6077,-7.6085,-7.6246,0,0,0,0,0,0,-7.5841,-7.5852,-7.5903,-7.5875,-7.588,-7.5988,-7.5856,-7.5842,-7.5857,-7.5842,-7.5821,-7.5812,-7.5761,-7.5845,-7.5856,-7.5932,-7.5771,-7.606,-7.6072,-7.6082,-7.6234,-7.626,-7.6282,0,0,0,0,0,-7.5838,-7.595,-7.5907,-7.5916,-7.5943,-7.5992,-7.5995,-7.5934,-7.5864,-7.5915,-7.5886,-7.5813,-7.592,-7.5855,-7.5865,-7.5945,-7.6055,-7.6069,-7.6081,-7.6223,-7.6255,-7.6281,0,0,0,0,0,0,-7.5988,-7.5944,-7.5896,-7.6002,-7.6002,-7.5968,-7.603,-7.597,-7.5989,-7.5974,-7.5898,-7.5894,-7.5988,-7.5975,-7.5903,-7.6075,-7.5975,-7.5991,-7.6079,-7.6109,-7.6132,-7.6132,-7.5775,0,0,0,0,0,-7.6034,-7.6078,-7.6037,-7.6135,-7.6137,-7.6085,-7.6104,-7.6057,-7.6053,-7.6052,-7.6029,-7.6028,-7.6061,-7.6085,-7.6113,-7.6233,-7.6225,-7.6293,-7.6317,-7.6336,-7.635,-7.6411,-7.644,-7.6131,-7.6131,-7.613,0,0,-7.6128,-7.611,-7.6142,-7.6165,-7.6159,-7.6206,-7.6085,-7.614,-7.6173,-7.606,-7.6135,-7.6119,-7.6114,-7.6215,-7.6258,-7.6207,-7.6434,-7.6353,-7.6369,-7.6372,-7.6427,-7.6457,-7.6483,-7.614,-7.6138,-7.6137,0,0,-7.6323,-7.6315,-7.6394,-7.6391,-7.6385,-7.6349,-7.6369,-7.6344,-7.6328,-7.6403,-7.6319,-7.6359,-7.6418,-7.6417,-7.6425,-7.6622,-7.6555,-7.6634,-7.6758,-7.6818,-7.6842,-7.6864,-7.6932,-7.6958,-7.6648,-7.6649,-7.6649,0,-7.644,-7.6507,-7.6443,-7.6503,-7.6515,-7.6416,-7.6496,-7.6497,-7.65,-7.651,-7.6453,-7.6526,-7.6515,-7.6614,-7.6663,-7.6673,-7.6692,-7.6634,-7.6844,-7.6865,-7.6884,-7.6948,-7.6974,-7.6658,-7.6657,-7.6656,-7.6655,0,-7.6652,-7.67,-7.6765,-7.6771,-7.6791,-7.6861,-7.6806,-7.6834,-7.6787,-7.6758,-7.6835,-7.682,-7.6842,-7.6863,-7.6818,-7.6956,-7.6924,-7.6858,-7.6755,-7.6924,-7.6982,-7.7007,-7.6672,-7.6668,-7.6665,-7.6663,0,0,-7.6937,-7.6908,-7.6932,-7.6933,-7.692,-7.6956,-7.7022,-7.7045,-7.7069,-7.7076,-7.7129,-7.7183,-7.712,-7.7129,-7.7083,-7.7137,-7.7292,-7.7063,-7.7061,-7.7104,-7.7442,-7.749,-7.752,-7.7249,-7.7254,-7.7257,-7.7442,0,-7.7123,-7.7233,-7.7177,-7.7294,-7.7337,-7.7246,-7.7303,-7.7301,-7.7277,-7.7309,-7.7282,-7.732,-7.7237,-7.7241,-7.7291,-7.7263,-7.7358,-7.7249,-7.7296,-7.7298,-7.7297,-7.7551,-7.7602,-7.7776,-7.7465,-7.7468,-7.7471,0,-7.7353,-7.7369,-7.7491,-7.7469,-7.7485,-7.7538,-7.7554,-7.7588,-7.7584,-7.7562,-7.7574,-7.7515,-7.7578,-7.748,-7.7565,-7.7492,-7.7508,-7.7498,-7.7503,-7.7502,-7.7392,-7.7554,-7.783,-7.7856,-7.7507,-7.7505,-7.7502,0,-7.7546,-7.7599,-7.7678,-7.7682,-7.766,-7.7699,-7.7691,-7.7682,-7.77,-7.7715,-7.7725,-7.7749,-7.776,-7.778,-7.7729,-7.7662,-7.7821,-7.7718,-7.7803,-7.7804,-7.7837,-7.7835,-7.8117,-7.7854,-7.7854,-7.7853,-7.7853,0,-7.7757,-7.7834,-7.7764,-7.7812,-7.7896,-7.7833,-7.7918,-7.79,-7.7894,-7.7937,-7.7861,-7.7903,-7.7835,-7.7871,-7.7832,-7.7908,-7.7915,-7.7898,-7.7886,-7.7903,-7.7905,-7.791,-7.7895,-7.786,-7.7859,-7.7857,-7.7856,0,-7.7984,-7.7941,-7.8021,-7.7994,-7.7989,-7.8052,-7.8029,-7.8073,-7.8044,-7.81,-7.8109,-7.8064,-7.8102,-7.8054,-7.8089,-7.8062,-7.8165,-7.8137,-7.8166,-7.8156,-7.8243,-7.8234,-7.8535,-7.8571,-7.8288,-7.8291,-7.8293,0,-7.812,-7.8177,-7.8157,-7.8181,-7.8178,-7.8218,-7.8235,-7.8176,-7.8197,-7.8199,-7.8242,-7.8274,-7.8296,-7.8362,-7.8331,-7.8357,-7.8327,-7.8431,-7.833,-7.8345,-7.8325,-7.8321,-7.8326,-7.845,-7.8454,-7.8456,-7.8459,0,-7.8365,-7.8341,-7.8369,-7.8391,-7.8414,-7.8429,-7.8437,-7.8461,-7.8399,-7.8427,-7.8465,-7.8483,-7.8518,-7.855,-7.8568,-7.856,-7.8499,-7.8491,-7.8512,-7.8527,-7.8541,-7.8532,-7.8218,-7.8484,-7.8481,-7.8479,-7.8478,-7.8477,-7.8548,-7.8595,-7.8588,-7.8622,-7.8623,-7.8633,-7.8672,-7.8649,-7.868,-7.8703,-7.8667,-7.8715,-7.8711,-7.8728,-7.8728,-7.8764,-7.8719,-7.875,-7.8757,-7.8765,-7.8776,-7.8539,-7.8768,-7.8767,-7.8766,-7.8766,-7.8765,0,-7.8786,-7.8778,-7.8811,-7.8825,-7.8852,-7.8795,-7.8801,-7.8827,-7.8871,-7.8872,-7.8896,-7.894,-7.8972,-7.8945,-7.8971,-7.9005,-7.8978,-7.9014,-7.9009,-7.9008,-7.8816,-7.8795,-7.9036,-7.9036,-7.9036,-7.9035,-7.9035,-7.9035,-7.8913,-7.8988,-7.8964,-7.9039,-7.903,-7.9076,-7.9084,-7.9093,-7.9094,-7.9147,-7.9173,-7.9156,-7.9146,-7.9171,-7.9197,-7.9189,-7.9201,-7.9246,-7.9228,-7.9048,-7.9022,-7.8996,-7.8975,-7.925,-7.925,-7.9416,-7.9417,-7.9418]},{"header":{"parameterUnit":"m.s-1","parameterCategory":1,"la1":30.2991,"la2":30.254,"lo1":-89.0895,"lo2":-89.0444,"dy":0.0017,"dx":0.0017,"nx":28,"ny":28,"refTime":"2024-06-16T21:00:00:Z","depth":0,"parameterNumber":3,"parameterNumberName":"V-component_of_WINDS"},"data":[0,0,0,0,0,0,0,0,0,0,0,0,0,0,0,0,0,0,0,0,0,0,0,0,0,0,0,0,0,0,0,0,0,0,0,0,0,0,0,0,0,0,0,0,0,0,0,0,0,0,0,0,0,0,0,0,0,0,1.8709,1.8709,0,1.87,1.87,1.87,1.8701,1.8701,1.8701,1.8701,1.869,1.8689,1.8689,0,0,0,0,0,0,0,0,0,0,0,0,0,1.8727,1.8727,1.8709,1.8709,1.8709,1.87,1.87,1.87,1.8701,1.8701,1.8701,1.8702,1.869,1.8689,1.8689,0,0,0,0,0,0,0,0,0,0,0,0,0,1.8719,1.8726,1.8709,1.8709,1.8708,1.87,1.87,1.87,1.8701,1.8701,1.8701,1.8702,1.869,1.8689,1.8689,1.868,0,0,1.8687,1.8686,0,0,0,0,0,0,0,0,1.8719,1.8718,1.8709,1.8709,1.8708,1.8702,1.8702,1.8693,1.8701,1.8704,1.8701,1.8702,1.8693,1.8693,1.869,1.8679,1.8679,1.8687,1.8686,1.8686,1.8686,0,0,0,0,0,0,0,1.872,1.8718,1.8706,1.8709,1.8708,1.8709,1.8708,1.87,1.8697,1.8703,1.8704,1.8703,1.8693,1.8691,1.869,1.8679,1.8687,1.8686,1.8686,1.8685,1.8663,1.8662,0,0,0,0,0,0,1.8721,1.8719,1.8706,1.8705,1.8715,1.8708,1.8707,1.8704,1.8697,1.8697,1.8702,1.8703,1.8692,1.8691,1.869,1.868,1.8686,1.8685,1.8685,1.8663,1.8663,1.8662,0,0,0,0,0,0,1.8721,1.8719,1.8706,1.8712,1.8711,1.8708,1.8704,1.8704,1.8701,1.8697,1.8696,1.87,1.8692,1.8691,1.8683,1.868,1.8685,1.8684,1.8663,1.8663,1.8662,1.866,0,0,0,0,0,0,1.8722,1.872,1.8716,1.8712,1.871,1.87,1.8704,1.8703,1.87,1.87,1.8695,1.8694,1.8692,1.8684,1.8682,1.8679,1.8684,1.8663,1.8663,1.8663,1.8661,1.866,1.8659,0,0,0,0,0,1.8722,1.8715,1.8716,1.8714,1.8706,1.87,1.8699,1.8697,1.87,1.8696,1.8694,1.8694,1.8681,1.8683,1.8681,1.8678,1.8663,1.8663,1.8663,1.8661,1.866,1.8659,0,0,0,0,0,0,1.8717,1.8714,1.8715,1.8707,1.8704,1.87,1.8695,1.8696,1.8692,1.8692,1.869,1.8689,1.8682,1.8679,1.8682,1.867,1.8672,1.8671,1.8672,1.8671,1.867,1.8671,1.8683,0,0,0,0,0,1.8715,1.8711,1.8708,1.8701,1.87,1.8698,1.8695,1.8695,1.8691,1.869,1.8687,1.8683,1.8678,1.8674,1.8669,1.8661,1.866,1.8657,1.8657,1.8656,1.8655,1.8652,1.8651,1.8661,1.8661,1.8661,0,0,1.871,1.8708,1.8705,1.87,1.8697,1.8693,1.8697,1.8691,1.8688,1.8688,1.8682,1.868,1.8675,1.8668,1.8664,1.8665,1.8653,1.8656,1.8656,1.8655,1.8652,1.8651,1.865,1.8661,1.8661,1.8661,0,0,1.87,1.8698,1.8692,1.869,1.8688,1.8687,1.8686,1.8683,1.8682,1.8675,1.8676,1.8672,1.8664,1.8661,1.8658,1.865,1.865,1.8649,1.8645,1.8642,1.8641,1.8641,1.8638,1.8638,1.8648,1.8648,1.8648,0,1.8694,1.8688,1.8689,1.8684,1.8682,1.8685,1.8679,1.8677,1.8672,1.8671,1.8673,1.8663,1.866,1.8653,1.8651,1.8649,1.8648,1.8649,1.8642,1.8641,1.864,1.8638,1.8637,1.8648,1.8648,1.8648,1.8648,0,1.8682,1.8678,1.8673,1.8671,1.8668,1.8663,1.8663,1.8661,1.8662,1.8661,1.8656,1.8653,1.8648,1.8647,1.8646,1.864,1.8641,1.8642,1.8644,1.8639,1.8637,1.8636,1.8648,1.8648,1.8648,1.8648,0,0,1.8665,1.8665,1.8664,1.8663,1.8662,1.8658,1.8654,1.8651,1.8649,1.8647,1.8643,1.8637,1.864,1.8637,1.8637,1.8634,1.8629,1.8636,1.8636,1.8635,1.8623,1.8622,1.8621,1.863,1.863,1.863,1.8624,0,1.8655,1.8648,1.865,1.8643,1.864,1.8643,1.864,1.8639,1.8639,1.8636,1.8636,1.8632,1.8635,1.8634,1.8631,1.863,1.8627,1.8631,1.8627,1.8627,1.8627,1.862,1.8618,1.8612,1.8623,1.8623,1.8622,0,1.8641,1.864,1.8633,1.8634,1.8633,1.8629,1.8628,1.8625,1.8625,1.8625,1.8624,1.8625,1.8621,1.8625,1.862,1.8623,1.8622,1.8621,1.8621,1.862,1.8624,1.8618,1.861,1.8609,1.8621,1.8621,1.8621,0,1.863,1.8627,1.8623,1.8622,1.8623,1.8621,1.8621,1.8621,1.862,1.8619,1.8618,1.8616,1.8615,1.8613,1.8614,1.8617,1.861,1.8613,1.861,1.861,1.8607,1.8607,1.8598,1.8607,1.8607,1.8607,1.8607,0,1.8618,1.8614,1.8618,1.8616,1.8612,1.8615,1.8611,1.8611,1.8611,1.8609,1.8612,1.861,1.8612,1.861,1.8611,1.8607,1.8607,1.8607,1.8607,1.8606,1.8606,1.8605,1.8605,1.8607,1.8607,1.8607,1.8607,0,1.8605,1.8608,1.8604,1.8606,1.8607,1.8603,1.8605,1.8603,1.8605,1.8602,1.8602,1.8604,1.8602,1.8603,1.8601,1.8602,1.8598,1.8598,1.8598,1.8598,1.8595,1.8596,1.8585,1.8584,1.8593,1.8593,1.8593,0,1.8596,1.8594,1.8596,1.8596,1.8596,1.8595,1.8595,1.8598,1.8597,1.8598,1.8596,1.8595,1.8594,1.8592,1.8593,1.8591,1.8592,1.8589,1.8592,1.8592,1.8592,1.8593,1.8593,1.8588,1.8587,1.8587,1.8587,0,1.8582,1.8584,1.8583,1.8584,1.8584,1.8584,1.8585,1.8584,1.8588,1.8587,1.8587,1.8586,1.8585,1.8584,1.8584,1.8584,1.8587,1.8587,1.8586,1.8585,1.8585,1.8585,1.8596,1.8586,1.8587,1.8587,1.8587,1.8587,1.8571,1.8569,1.8572,1.8571,1.8573,1.8574,1.8573,1.8575,1.8575,1.8575,1.8577,1.8576,1.8578,1.8578,1.8578,1.8578,1.8579,1.8578,1.8578,1.8577,1.8577,1.8586,1.8578,1.8578,1.8578,1.8578,1.8578,0,1.8557,1.8559,1.8559,1.8561,1.8561,1.8565,1.8567,1.8566,1.8566,1.8568,1.8568,1.8568,1.8567,1.857,1.857,1.8569,1.857,1.8569,1.8569,1.8569,1.8575,1.8576,1.8568,1.8568,1.8568,1.8568,1.8568,1.8568,1.8549,1.8547,1.855,1.8549,1.8552,1.8552,1.8553,1.8554,1.8555,1.8556,1.8556,1.8558,1.856,1.8561,1.8562,1.8562,1.8562,1.8561,1.8562,1.8567,1.8568,1.8569,1.857,1.8561,1.8561,1.8556,1.8556,1.8555]}]]